| time (UTC) | temp C | wind direction | speed KPH | gust KPH | rain 1hr cm | rain 24hr cm | rain mn cm | humidity % | barometer mb |
| 20260502184504 | 15 | 0 | 0.0 | 0.0 | 0.00 | 0.10 | 0.00 | 66 | 1011.5 |
| 20260502184002 | 15 | 0 | 0.0 | 0.0 | 0.00 | 0.10 | 0.00 | 67 | 1011.5 |
| 20260502183501 | 15 | 0 | 0.0 | 0.0 | 0.00 | 0.10 | 0.00 | 66 | 1011.4 |
| 20260502182502 | 15 | 0 | 0.0 | 0.0 | 0.00 | 0.10 | 0.00 | 64 | 1011.4 |
| 20260502182000 | 15 | 0 | 0.0 | 0.0 | 0.00 | 0.10 | 0.00 | 64 | 1011.4 |
| 20260502181504 | 15 | 0 | 0.0 | 0.0 | 0.00 | 0.10 | 0.00 | 64 | 1011.5 |
| 20260502181001 | 15 | 0 | 0.0 | 0.0 | 0.00 | 0.10 | 0.00 | 63 | 1011.5 |
| 20260502170500 | 16 | 173 | 3.2 | 6.4 | 0.00 | 0.10 | 0.00 | 59 | 1011.9 |
| 20260502164001 | 16 | 269 | 1.6 | 3.2 | 0.00 | 0.10 | 0.00 | 59 | 1012.0 |
| 20260502163501 | 16 | 269 | 1.6 | 3.2 | 0.00 | 0.10 | 0.00 | 58 | 1012.1 |
| 20260502163004 | 16 | 267 | 1.6 | 6.4 | 0.00 | 0.10 | 0.00 | 57 | 1012.0 |
| 20260502162502 | 16 | 258 | 1.6 | 6.4 | 0.00 | 0.10 | 0.00 | 58 | 1012.1 |
| 20260502161505 | 16 | 221 | 3.2 | 6.4 | 0.00 | 0.10 | 0.00 | 57 | 1012.3 |
| 20260502161000 | 17 | 255 | 3.2 | 6.4 | 0.00 | 0.10 | 0.00 | 56 | 1012.4 |
| 20260502160502 | 17 | 331 | 1.6 | 6.4 | 0.00 | 0.10 | 0.00 | 57 | 1012.4 |
| 20260502152001 | 19 | 0 | 0.0 | 6.4 | 0.00 | 0.10 | 0.00 | 52 | 1012.8 |
| 20260502151000 | 19 | 239 | 3.2 | 6.4 | 0.00 | 0.10 | 0.00 | 50 | 1012.9 |
| 20260502150501 | 19 | 268 | 4.8 | 8.0 | 0.00 | 0.10 | 0.00 | 48 | 1012.9 |
| 20260502130500 | 19 | 285 | 6.4 | 14.5 | 0.00 | 0.10 | 0.00 | 55 | 1014.3 |
| 20260502123500 | 18 | 156 | 1.6 | 9.7 | 0.00 | 0.10 | 0.00 | 57 | 1014.6 |
| 20260502123004 | 18 | 168 | 3.2 | 12.9 | 0.00 | 0.10 | 0.00 | 55 | 1014.7 |
| 20260502122501 | 18 | 164 | 4.8 | 12.9 | 0.00 | 0.10 | 0.00 | 56 | 1014.7 |
| 20260502121503 | 18 | 162 | 3.2 | 12.9 | 0.00 | 0.10 | 0.00 | 60 | 1014.9 |
| 20260502121000 | 17 | 306 | 1.6 | 12.9 | 0.00 | 0.10 | 0.00 | 62 | 1015.0 |
| 20260502120500 | 17 | 310 | 1.6 | 11.3 | 0.00 | 0.10 | 0.00 | 64 | 1015.1 |
| 20260502115502 | 17 | 243 | 3.2 | 9.7 | 0.00 | 0.10 | 0.00 | 61 | 1015.3 |
| 20260502115000 | 17 | 269 | 3.2 | 8.0 | 0.00 | 0.10 | 0.00 | 62 | 1015.4 |
| 20260502114504 | 17 | 281 | 4.8 | 9.7 | 0.00 | 0.10 | 0.00 | 65 | 1015.4 |
| 20260502114000 | 16 | 87 | 3.2 | 9.7 | 0.00 | 0.10 | 0.00 | 65 | 1015.4 |
| 20260502113501 | 17 | 109 | 4.8 | 9.7 | 0.00 | 0.10 | 0.00 | 62 | 1015.4 |
| 20260502113004 | 17 | 122 | 4.8 | 8.0 | 0.00 | 0.10 | 0.00 | 62 | 1015.4 |
| 20260502112000 | 17 | 346 | 3.2 | 8.0 | 0.00 | 0.10 | 0.00 | 64 | 1015.5 |
| 20260502111504 | 16 | 313 | 3.2 | 8.0 | 0.00 | 0.10 | 0.00 | 68 | 1015.5 |
| 20260502111001 | 16 | 332 | 3.2 | 11.3 | 0.00 | 0.10 | 0.00 | 66 | 1015.7 |
| 20260502110500 | 16 | 350 | 1.6 | 11.3 | 0.00 | 0.10 | 0.00 | 67 | 1015.7 |
| 20260502110004 | 16 | 0 | 0.0 | 4.8 | 0.00 | 0.10 | 0.00 | 70 | 1015.8 |
| 20260502105002 | 15 | 0 | 0.0 | 4.8 | 0.00 | 0.10 | 0.00 | 73 | 1016.1 |
| 20260502104504 | 14 | 0 | 0.0 | 4.8 | 0.00 | 0.10 | 0.00 | 75 | 1016.0 |
| 20260502104001 | 14 | 0 | 0.0 | 0.0 | 0.00 | 0.10 | 0.00 | 75 | 1016.0 |
| 20260502103500 | 13 | 0 | 0.0 | 4.8 | 0.00 | 0.10 | 0.00 | 75 | 1016.0 |
| 20260502102500 | 13 | 160 | 3.2 | 8.0 | 0.00 | 0.10 | 0.00 | 77 | 1016.0 |
| 20260502102002 | 13 | 162 | 3.2 | 8.0 | 0.00 | 0.10 | 0.00 | 76 | 1016.1 |
| 20260502101503 | 13 | 199 | 1.6 | 8.0 | 0.00 | 0.10 | 0.00 | 77 | 1016.2 |
| 20260502100500 | 13 | 179 | 1.6 | 11.3 | 0.00 | 0.10 | 0.00 | 77 | 1016.3 |
| 20260502091505 | 12 | 0 | 0.0 | 3.2 | 0.00 | 0.10 | 0.00 | 82 | 1016.4 |
| 20260502091001 | 12 | 0 | 0.0 | 1.6 | 0.00 | 0.10 | 0.00 | 80 | 1016.4 |
| 20260502090501 | 12 | 0 | 0.0 | 1.6 | 0.00 | 0.10 | 0.00 | 81 | 1016.5 |
| 20260502071504 | 10 | 0 | 0.0 | 1.6 | 0.00 | 0.10 | 0.00 | 90 | 1016.7 |
| 20260502071000 | 10 | 0 | 0.0 | 0.0 | 0.00 | 0.10 | 0.00 | 90 | 1016.8 |
| 20260502070500 | 10 | 0 | 0.0 | 0.0 | 0.00 | 0.10 | 0.00 | 90 | 1016.8 |
| 20260502065501 | 9 | 0 | 0.0 | 3.2 | 0.00 | 0.10 | 0.00 | 90 | 1016.7 |
| 20260502065000 | 9 | 0 | 0.0 | 3.2 | 0.00 | 0.10 | 0.00 | 90 | 1016.7 |
| 20260502063459 | 9 | 176 | 1.6 | 6.4 | 0.00 | 0.10 | 0.00 | 90 | 1016.6 |
| 20260502063003 | 9 | 173 | 3.2 | 6.4 | 0.00 | 0.10 | 0.00 | 90 | 1016.7 |
| 20260502062000 | 8 | 185 | 3.2 | 6.4 | 0.00 | 0.10 | 0.00 | 90 | 1016.6 |
| 20260502061001 | 8 | 0 | 0.0 | 6.4 | 0.00 | 0.10 | 0.00 | 90 | 1016.5 |
| 20260502060501 | 8 | 0 | 0.0 | 0.0 | 0.00 | 0.10 | 0.00 | 90 | 1016.6 |
| 20260502060003 | 8 | 0 | 0.0 | 4.8 | 0.00 | 0.10 | 0.00 | 90 | 1016.5 |
| 20260502055501 | 8 | 147 | 1.6 | 4.8 | 0.00 | 0.10 | 0.00 | 90 | 1016.5 |
| 20260502055001 | 8 | 148 | 1.6 | 4.8 | 0.00 | 0.10 | 0.00 | 90 | 1016.5 |
| 20260502054503 | 8 | 155 | 1.6 | 6.4 | 0.00 | 0.10 | 0.00 | 90 | 1016.4 |
| 20260502053501 | 8 | 141 | 1.6 | 4.8 | 0.00 | 0.10 | 0.00 | 90 | 1016.5 |
| 20260502053003 | 8 | 144 | 1.6 | 4.8 | 0.00 | 0.10 | 0.00 | 90 | 1016.5 |
| 20260502052501 | 8 | 143 | 3.2 | 6.4 | 0.00 | 0.10 | 0.00 | 90 | 1016.5 |
| 20260502051503 | 8 | 141 | 3.2 | 6.4 | 0.00 | 0.10 | 0.00 | 90 | 1016.6 |
| 20260502051000 | 8 | 143 | 3.2 | 6.4 | 0.00 | 0.10 | 0.00 | 90 | 1016.6 |
| 20260502050003 | 8 | 143 | 1.6 | 6.4 | 0.00 | 0.10 | 0.00 | 90 | 1016.6 |
| 20260502044503 | 8 | 136 | 3.2 | 6.4 | 0.00 | 0.10 | 0.00 | 90 | 1016.6 |
| 20260502044001 | 8 | 144 | 1.6 | 4.8 | 0.00 | 0.10 | 0.00 | 90 | 1016.5 |
| 20260502043500 | 8 | 0 | 0.0 | 4.8 | 0.00 | 0.10 | 0.00 | 90 | 1016.6 |
| 20260502043004 | 8 | 139 | 1.6 | 4.8 | 0.00 | 0.10 | 0.00 | 90 | 1016.6 |
| 20260502042000 | 8 | 138 | 3.2 | 6.4 | 0.00 | 0.10 | 0.00 | 90 | 1016.6 |
| 20260502041502 | 8 | 139 | 3.2 | 6.4 | 0.00 | 0.10 | 0.00 | 90 | 1016.6 |
| 20260502041002 | 8 | 147 | 3.2 | 6.4 | 0.00 | 0.10 | 0.00 | 90 | 1016.7 |
| 20260502040500 | 8 | 162 | 3.2 | 4.8 | 0.00 | 0.10 | 0.00 | 90 | 1016.6 |
| 20260502040004 | 8 | 175 | 3.2 | 6.4 | 0.00 | 0.10 | 0.00 | 90 | 1016.7 |
| 20260502035500 | 8 | 175 | 3.2 | 6.4 | 0.00 | 0.10 | 0.00 | 90 | 1016.8 |
| 20260502035000 | 8 | 153 | 4.8 | 9.7 | 0.00 | 0.10 | 0.00 | 90 | 1016.7 |
| 20260502034504 | 8 | 141 | 6.4 | 9.7 | 0.00 | 0.10 | 0.00 | 90 | 1016.7 |
| 20260502034001 | 8 | 143 | 4.8 | 9.7 | 0.00 | 0.10 | 0.00 | 90 | 1016.6 |
| 20260502033459 | 8 | 158 | 4.8 | 8.0 | 0.00 | 0.10 | 0.00 | 90 | 1016.7 |
| 20260502033003 | 8 | 159 | 4.8 | 8.0 | 0.00 | 0.10 | 0.00 | 90 | 1016.7 |
| 20260502032459 | 8 | 155 | 4.8 | 8.0 | 0.00 | 0.10 | 0.00 | 90 | 1016.8 |
| 20260502032000 | 8 | 157 | 4.8 | 8.0 | 0.00 | 0.10 | 0.00 | 90 | 1016.7 |
| 20260502031503 | 8 | 162 | 4.8 | 8.0 | 0.00 | 0.10 | 0.00 | 90 | 1016.7 |
| 20260502031002 | 8 | 169 | 3.2 | 8.0 | 0.00 | 0.10 | 0.00 | 90 | 1016.7 |
| 20260502030003 | 8 | 166 | 3.2 | 6.4 | 0.00 | 0.10 | 0.00 | 90 | 1016.7 |
| 20260502025459 | 8 | 161 | 3.2 | 6.4 | 0.00 | 0.10 | 0.00 | 90 | 1016.7 |
| 20260502025000 | 9 | 157 | 3.2 | 6.4 | 0.00 | 0.10 | 0.00 | 90 | 1016.7 |
| 20260502024503 | 9 | 160 | 3.2 | 8.0 | 0.00 | 0.10 | 0.00 | 90 | 1016.7 |
| 20260502024000 | 9 | 167 | 4.8 | 8.0 | 0.00 | 0.10 | 0.00 | 90 | 1016.8 |
| 20260502023459 | 9 | 170 | 4.8 | 8.0 | 0.00 | 0.10 | 0.00 | 90 | 1016.8 |
| 20260502023004 | 9 | 177 | 4.8 | 9.7 | 0.00 | 0.10 | 0.00 | 90 | 1016.8 |
| 20260502022000 | 9 | 197 | 3.2 | 9.7 | 0.00 | 0.10 | 0.00 | 90 | 1016.9 |
| 20260502021502 | 9 | 202 | 3.2 | 9.7 | 0.00 | 0.10 | 0.00 | 90 | 1016.9 |
| 20260502021000 | 9 | 202 | 3.2 | 9.7 | 0.00 | 0.10 | 0.00 | 90 | 1016.9 |
| 20260502020459 | 9 | 208 | 1.6 | 9.7 | 0.00 | 0.10 | 0.00 | 90 | 1017.0 |
| 20260502020003 | 9 | 200 | 3.2 | 12.9 | 0.00 | 0.10 | 0.00 | 90 | 1016.9 |
| 20260502014502 | 10 | 224 | 1.6 | 6.4 | 0.00 | 0.10 | 0.00 | 90 | 1017.1 |
| 20260502014000 | 10 | 226 | 1.6 | 6.4 | 0.00 | 0.10 | 0.00 | 90 | 1017.1 |
| 20260502013459 | 10 | 228 | 1.6 | 6.4 | 0.00 | 0.10 | 0.00 | 90 | 1017.2 |
| 20260502013003 | 10 | 201 | 1.6 | 6.4 | 0.00 | 0.10 | 0.00 | 90 | 1017.2 |
| 20260502012500 | 10 | 189 | 1.6 | 6.4 | 0.00 | 0.10 | 0.00 | 90 | 1017.2 |
| 20260502012000 | 10 | 0 | 0.0 | 4.8 | 0.00 | 0.10 | 0.00 | 90 | 1017.2 |
| 20260502011502 | 10 | 236 | 1.6 | 8.0 | 0.00 | 0.10 | 0.00 | 89 | 1017.2 |
| 20260502011000 | 10 | 238 | 1.6 | 8.0 | 0.00 | 0.10 | 0.00 | 90 | 1017.3 |
| 20260502010500 | 10 | 0 | 0.0 | 3.2 | 0.00 | 0.10 | 0.00 | 90 | 1017.4 |
| 20260502010003 | 10 | 0 | 0.0 | 0.0 | 0.00 | 0.10 | 0.00 | 90 | 1017.5 |
| 20260502005501 | 10 | 0 | 0.0 | 3.2 | 0.00 | 0.10 | 0.00 | 90 | 1017.5 |
| 20260502004504 | 11 | 0 | 0.0 | 4.8 | 0.00 | 0.10 | 0.00 | 90 | 1017.6 |
| 20260502004000 | 11 | 0 | 0.0 | 4.8 | 0.00 | 0.10 | 0.00 | 89 | 1017.7 |
| 20260502003501 | 11 | 0 | 0.0 | 4.8 | 0.00 | 0.10 | 0.00 | 89 | 1017.8 |
| 20260502003002 | 11 | 0 | 0.0 | 4.8 | 0.00 | 0.10 | 0.00 | 89 | 1017.7 |
| 20260502002501 | 11 | 0 | 0.0 | 3.2 | 0.00 | 0.10 | 0.00 | 89 | 1017.7 |
| 20260502002001 | 11 | 0 | 0.0 | 3.2 | 0.00 | 0.10 | 0.00 | 90 | 1017.8 |
| 20260502001503 | 10 | 0 | 0.0 | 3.2 | 0.00 | 0.10 | 0.00 | 90 | 1017.8 |
| 20260502001000 | 10 | 0 | 0.0 | 3.2 | 0.00 | 0.10 | 0.00 | 90 | 1017.8 |
| 20260502000459 | 10 | 0 | 0.0 | 1.6 | 0.00 | 0.10 | 0.00 | 89 | 1017.9 |
| 20260502000003 | 10 | 169 | 1.6 | 4.8 | 0.00 | 0.10 | 0.00 | 89 | 1017.9 |
| 20260501235459 | 10 | 184 | 1.6 | 4.8 | 0.00 | 0.10 | 0.00 | 89 | 1017.9 |
| 20260501235000 | 10 | 0 | 0.0 | 4.8 | 0.00 | 0.10 | 0.00 | 90 | 1017.9 |
| 20260501234502 | 10 | 0 | 0.0 | 0.0 | 0.00 | 0.10 | 0.00 | 90 | 1017.9 |
| 20260501234001 | 10 | 0 | 0.0 | 0.0 | 0.00 | 0.10 | 0.00 | 89 | 1017.9 |
| 20260501233500 | 10 | 0 | 0.0 | 0.0 | 0.00 | 0.10 | 0.00 | 89 | 1017.9 |
| 20260501232501 | 10 | 0 | 0.0 | 3.2 | 0.00 | 0.10 | 0.00 | 89 | 1017.9 |
| 20260501231959 | 11 | 0 | 0.0 | 3.2 | 0.00 | 0.10 | 0.00 | 89 | 1018.0 |
| 20260501231503 | 11 | 0 | 0.0 | 3.2 | 0.00 | 0.10 | 0.00 | 89 | 1018.0 |
| 20260501231001 | 11 | 0 | 0.0 | 1.6 | 0.00 | 0.10 | 0.00 | 89 | 1018.0 |
| 20260501230501 | 11 | 0 | 0.0 | 1.6 | 0.00 | 0.10 | 0.00 | 89 | 1018.0 |
| 20260501230006 | 11 | 0 | 0.0 | 3.2 | 0.00 | 0.10 | 0.00 | 89 | 1018.0 |
| 20260501224959 | 11 | 202 | 1.6 | 3.2 | 0.00 | 0.10 | 0.10 | 89 | 1018.0 |
| 20260501224503 | 11 | 210 | 1.6 | 4.8 | 0.00 | 0.10 | 0.10 | 89 | 1018.1 |
| 20260501223959 | 11 | 226 | 1.6 | 4.8 | 0.00 | 0.10 | 0.10 | 89 | 1018.1 |
| 20260501223500 | 11 | 235 | 1.6 | 4.8 | 0.00 | 0.10 | 0.10 | 89 | 1018.0 |
| 20260501223002 | 11 | 234 | 1.6 | 4.8 | 0.00 | 0.10 | 0.10 | 89 | 1018.0 |
| 20260501222501 | 11 | 224 | 1.6 | 4.8 | 0.00 | 0.10 | 0.10 | 89 | 1018.0 |
| 20260501222000 | 11 | 0 | 0.0 | 4.8 | 0.00 | 0.10 | 0.10 | 89 | 1018.0 |
| 20260501221502 | 11 | 0 | 0.0 | 0.0 | 0.00 | 0.10 | 0.10 | 89 | 1018.0 |
| 20260501220959 | 11 | 0 | 0.0 | 0.0 | 0.00 | 0.10 | 0.10 | 89 | 1018.0 |
| 20260501220002 | 11 | 0 | 0.0 | 0.0 | 0.00 | 0.10 | 0.10 | 89 | 1018.0 |
| 20260501215501 | 11 | 0 | 0.0 | 0.0 | 0.00 | 0.10 | 0.10 | 89 | 1018.0 |
| 20260501215000 | 11 | 0 | 0.0 | 3.2 | 0.00 | 0.10 | 0.10 | 89 | 1018.0 |
| 20260501214502 | 11 | 0 | 0.0 | 3.2 | 0.00 | 0.10 | 0.10 | 89 | 1017.9 |
| 20260501214000 | 11 | 0 | 0.0 | 0.0 | 0.00 | 0.10 | 0.10 | 89 | 1018.0 |
| 20260501213459 | 11 | 0 | 0.0 | 0.0 | 0.00 | 0.10 | 0.10 | 89 | 1018.0 |
| 20260501213002 | 11 | 0 | 0.0 | 0.0 | 0.00 | 0.10 | 0.10 | 89 | 1018.1 |
| 20260501211959 | 12 | 0 | 0.0 | 0.0 | 0.00 | 0.10 | 0.10 | 89 | 1018.1 |
| 20260501211503 | 12 | 0 | 0.0 | 0.0 | 0.00 | 0.10 | 0.10 | 89 | 1018.1 |
| 20260501210959 | 12 | 0 | 0.0 | 0.0 | 0.00 | 0.10 | 0.10 | 89 | 1018.2 |
| 20260501210459 | 12 | 0 | 0.0 | 0.0 | 0.00 | 0.10 | 0.10 | 89 | 1018.2 |
| 20260501210004 | 12 | 0 | 0.0 | 0.0 | 0.00 | 0.10 | 0.10 | 89 | 1018.2 |
| 20260501205459 | 12 | 0 | 0.0 | 0.0 | 0.00 | 0.10 | 0.10 | 89 | 1018.2 |
| 20260501205000 | 12 | 0 | 0.0 | 0.0 | 0.00 | 0.10 | 0.10 | 89 | 1018.2 |
| 20260501204502 | 12 | 0 | 0.0 | 1.6 | 0.00 | 0.10 | 0.10 | 89 | 1018.2 |
| 20260501203959 | 12 | 0 | 0.0 | 1.6 | 0.00 | 0.10 | 0.10 | 89 | 1018.2 |
| 20260501203500 | 12 | 0 | 0.0 | 1.6 | 0.00 | 0.10 | 0.10 | 89 | 1018.1 |
| 20260501203003 | 12 | 0 | 0.0 | 0.0 | 0.03 | 0.10 | 0.10 | 89 | 1018.2 |
| 20260501202459 | 12 | 0 | 0.0 | 0.0 | 0.03 | 0.10 | 0.10 | 89 | 1018.2 |
| 20260501202000 | 12 | 0 | 0.0 | 6.4 | 0.03 | 0.10 | 0.10 | 89 | 1018.3 |
| 20260501201000 | 12 | 0 | 0.0 | 3.2 | 0.05 | 0.10 | 0.10 | 89 | 1018.2 |
| 20260501200500 | 12 | 333 | 1.6 | 6.4 | 0.08 | 0.10 | 0.10 | 89 | 1018.3 |
| 20260501200004 | 12 | 323 | 1.6 | 6.4 | 0.10 | 0.10 | 0.10 | 89 | 1018.3 |
| 20260501195459 | 12 | 0 | 0.0 | 4.8 | 0.10 | 0.10 | 0.10 | 89 | 1018.4 |
| 20260501194959 | 12 | 0 | 0.0 | 0.0 | 0.10 | 0.10 | 0.10 | 89 | 1018.3 |
| 20260501194502 | 12 | 0 | 0.0 | 0.0 | 0.10 | 0.10 | 0.10 | 89 | 1018.3 |
| 20260501194001 | 12 | 0 | 0.0 | 3.2 | 0.10 | 0.10 | 0.10 | 89 | 1018.3 |
| 20260501193459 | 12 | 297 | 1.6 | 4.8 | 0.10 | 0.10 | 0.10 | 89 | 1018.3 |
| 20260501193003 | 12 | 298 | 3.2 | 12.9 | 0.08 | 0.08 | 0.08 | 89 | 1018.2 |
| 20260501192500 | 12 | 300 | 6.4 | 12.9 | 0.08 | 0.08 | 0.08 | 88 | 1018.2 |
| 20260501191959 | 12 | 305 | 4.8 | 11.3 | 0.08 | 0.08 | 0.08 | 88 | 1018.2 |
| 20260501190959 | 12 | 296 | 6.4 | 14.5 | 0.05 | 0.05 | 0.05 | 88 | 1018.2 |
| 20260501190500 | 13 | 289 | 8.0 | 14.5 | 0.03 | 0.03 | 0.03 | 86 | 1018.2 |
| 20260501190003 | 13 | 282 | 6.4 | 14.5 | 0.00 | 0.00 | 0.00 | 85 | 1018.2 |
| 20260501185500 | 13 | 291 | 6.4 | 12.9 | 0.00 | 0.00 | 0.00 | 84 | 1018.2 |
| 20260501184959 | 13 | 298 | 6.4 | 12.9 | 0.00 | 0.00 | 0.00 | 82 | 1018.2 |